Regional Weather Roundup
Issued by NWS

Home | Current Version | Previous Version | Text Only | Print | Product List | Glossary Off
Versions: 1 2 3 4 5 6 7 8 9 10 11 12 13 14 15 16 17 18 19 20 21 22 23 24 25 26 27 28 29 30 31 32 33 34 35 36 37 38 39 40 41 42

285
ASUS44 KLIX 021401
RWRLA
LOUISIANA WEATHER ROUNDUP
NATIONAL WEATHER SERVICE NEW ORLEANS LA
900 AM CDT TUE SEP 02 2014

NOTE: "FAIR" INDICATES FEW OR NO CLOUDS BELOW 12,000 FEET WITH NO
      SIGNIFICANT WEATHER AND/OR OBSTRUCTIONS TO VISIBILITY.
      SKY/WX - SKY CONDITION AND SIGNIFICANT WEATHER.
      TMP - AIR TEMPERATURE.    DP   - DEWPOINT TEMPERATURE.
      RH  - RELATIVE HUMIDITY.  PRES - PRESSURE.
      HX  - HEAT INDEX.         WCI  - WIND CHILL INDEX.

*  THESE STATIONS ARE NOT NWS OR FAA STATIONS AND ARE NOT UNDER
   NWS QUALITY CONTROL.

LAZ040-048-061>063-065-066-069-021500-
SOUTHEAST LOUISIANA

CITY           SKY/WX    TMP DP  RH WIND       PRES   REMARKS
N.O. AUDUBON   NOT AVBL
N.O. INTL ARPT PTSUNNY   85  77  77 S7        30.06S HX  95
N.O. LAKEFRONT MOSUNNY   83  77  82 SE6       30.07S
N.O. DOWNTOWN* FAIR      84  73  70 S5        30.07R
SLIDELL        PTSUNNY   80  77  90 CALM      30.07R
BATON ROUGE    MOSUNNY   83  76  79 SE7       30.05S
BOOTHVILLE     MOSUNNY   86  78  77 E7        30.07S HX  98
BELLE CHASSE   MOSUNNY   86  76  71 S5        30.06S HX  96
BOGALUSA*        N/A     80  75  86 CALM      30.08S
GALLIANO*      NOT AVBL
NEW ROADS*     FAIR      82  78  87 SE6       30.05R
GONZALES*      FAIR      84  80  89 S7        30.05S HX  97
HAMMOND*       NOT AVBL
HOUMA*         MOSUNNY   84  75  74 SE3       30.06S
PORT FOURCHON* SUNNY     86  75  70 SE8       30.08S HX  95

$$

LAZ041-044-053-054-021500-
SOUTHWEST LOUISIANA

CITY           SKY/WX    TMP DP  RH WIND       PRES   REMARKS
LAKE CHARLES   SUNNY     84  79  85 S10       30.01R HX  96
LAFAYETTE      SUNNY     83  78  85 S5        30.04R
PATTERSON      SUNNY     84  79  84 SE7       30.08R HX  96
SALT POINT       N/A     89  78  70 VRB6      30.04R HX 103
NEW IBERIA     SUNNY     83  79  88 SE8       30.05R
CHENAULT AIRPK SUNNY     82  77  83 SE12      30.02R

$$

LAZ027-028-021500-
CENTRAL LOUISIANA

CITY           SKY/WX    TMP DP  RH WIND       PRES   REMARKS
FORT POLK      PTSUNNY   78  77  96 S10       30.03R
ALEXANDRIA INT CLOUDY    77  77 100 SE7       30.02R
ALEXANDRIA     CLOUDY    81  77  88 S3        30.04R

$$

LAZ001-002-021500-
NORTHWEST LOUISIANA

CITY           SKY/WX    TMP DP  RH WIND       PRES   REMARKS
SHREVEPORT     PTSUNNY   83  76  79 S8        30.00S
BARKSDALE AFB  PTSUNNY   82  75  78 S8        30.01R
DTN SHREVEPORT MOSUNNY   82  75  79 S9        30.01R

$$

LAZ014-016-021500-
NORTHEAST LOUISIANA

CITY           SKY/WX    TMP DP  RH WIND       PRES   REMARKS
MONROE         CLOUDY    80  76  87 CALM      30.05R
TALLULAH       MOSUNNY   82  76  81 S9        30.05S

$$




USA.gov is the U.S. government's official web portal to all federal, state and local government web resources and services.